Voltar ao catálogo

STARLINK-36625

AtivoComunicaçõesSSO
NORAD 67668·PAYLOAD·🇺🇸 United States

Lançado Feb 2, 2026 de Vandenberg Space Force Base

Loading…

Próximas Passagens (próximas 24 horas)

TLE

AtualizadoSource: CelesTrak SupGP

Época: Sep 15, 2026, 03:17 UTC

1 67668C 26022W   26258.13729167 -.00031016  00000+0 -96280-3 0  2582
2 67668  97.2839 289.7679 0001402  86.2641 306.9221 15.33455123    11

Acompanhe STARLINK-36625 em tempo real com AllMySat

Download on the App Store